DW5244 Weather Reports


Display with metric or nautical units.
time (UTC)temp
F
wind
direction
speed
MPH
gust
MPH
rain 1hr
in
rain 24hr
in
rain mn
in
humidity
%
barometer
mb
20260505234504 87 336 8.0 14.0 0.00 0.00 0.00 13 1008.5
20260505233102 88 344 0.0 6.0 0.00 0.00 0.00 13 1008.4
20260505231559 88 333 3.0 12.0 0.00 0.00 0.00 15 1008.6
20260505230106 87 360 9.0 16.0 0.00 0.00 0.00 16 1008.7
20260505224556 89 339 6.0 13.0 0.00 0.00 0.00 15 1008.8
20260505223107 89 316 7.0 13.0 0.00 0.00 0.00 14 1009.1
20260505221553 89 342 6.0 11.0 0.00 0.00 0.00 15 1009.2
20260505220051 89 317 7.0 12.0 0.00 0.00 0.00 14 1009.4
20260505214549 88 318 4.0 14.0 0.00 0.00 0.00 15 1009.7
20260505213055 88 314 6.0 12.0 0.00 0.00 0.00 15 1010.0
20260505211543 89 284 8.0 18.0 0.00 0.00 0.00 14 1010.5
20260505210042 88 285 4.0 18.0 0.00 0.00 0.00 15 1010.7
20260505204541 88 308 8.0 13.0 0.00 0.00 0.00 15 1010.9
20260505203046 88 317 7.0 17.0 0.00 0.00 0.00 15 1011.1
20260505201538 86 252 1.0 12.0 0.00 0.00 0.00 17 1011.3
20260505200036 85 198 6.0 14.0 0.00 0.00 0.00 17 1011.6
20260505194534 85 292 4.0 17.0 0.00 0.00 0.00 17 1011.7
20260505193033 85 287 13.0 18.0 0.00 0.00 0.00 17 1011.9
20260505191532 86 215 3.0 10.0 0.00 0.00 0.00 17 1011.8
20260505190033 84 198 5.0 12.0 0.00 0.00 0.00 17 1012.0
20260505184529 84 221 5.0 17.0 0.00 0.00 0.00 18 1012.3
20260505183027 84 360 11.0 18.0 0.00 0.00 0.00 17 1012.6
20260505181527 83 360 9.0 18.0 0.00 0.00 0.00 17 1012.6
20260505180025 83 277 3.0 16.0 0.00 0.00 0.00 17 1012.7
20260505174524 83 297 10.0 15.0 0.00 0.00 0.00 17 1012.7
20260505173037 82 279 5.0 16.0 0.00 0.00 0.00 19 1012.7
20260505171522 84 287 6.0 17.0 0.00 0.00 0.00 18 1012.8
20260505170026 83 360 8.0 18.0 0.00 0.00 0.00 18 1012.8
20260505164537 82 309 3.0 9.0 0.00 0.00 0.00 19 1012.7
20260505163015 81 325 5.0 14.0 0.00 0.00 0.00 19 1012.7
20260505161513 82 319 5.0 13.0 0.00 0.00 0.00 19 1012.7
20260505153010 80 73 3.0 6.0 0.00 0.00 0.00 25 1012.7
20260505151503 79 198 1.0 4.0 0.00 0.00 0.00 28 1012.8
20260505124538 60 360 0.0 3.0 0.00 0.00 0.00 47 1011.7
20260505123031 61 360 2.0 5.0 0.00 0.00 0.00 44 1011.5
20260505121536 61 360 2.0 3.0 0.00 0.00 0.00 41 1011.4
20260505120027 62 360 2.0 4.0 0.00 0.00 0.00 42 1011.3
20260505114534 63 360 1.0 2.0 0.00 0.00 0.00 39 1011.2
20260505113025 62 360 1.0 3.0 0.00 0.00 0.00 41 1010.8
20260505111530 64 360 0.0 2.0 0.00 0.00 0.00 37 1010.8
20260505101518 63 360 3.0 6.0 0.00 0.00 0.00 40 1010.9
20260505100016 65 360 1.0 5.0 0.00 0.00 0.00 36 1010.8
20260505094515 64 360 2.0 5.0 0.00 0.00 0.00 37 1010.8
20260505093011 65 360 1.0 3.0 0.00 0.00 0.00 35 1010.9
20260505091509 67 360 1.0 3.0 0.00 0.00 0.00 33 1011.0
20260505090006 68 360 2.0 6.0 0.00 0.00 0.00 32 1011.1
20260505084504 68 360 8.0 12.0 0.00 0.00 0.00 32 1011.0
20260505083100 69 360 11.0 13.0 0.00 0.00 0.00 31 1011.1
20260505081604 69 360 10.0 13.0 0.00 0.00 0.00 30 1011.1
20260505080058 69 360 9.0 13.0 0.00 0.00 0.00 30 1011.2
20260505074608 69 360 4.0 9.0 0.00 0.00 0.00 31 1011.3
20260505073054 70 360 6.0 11.0 0.00 0.00 0.00 30 1011.4
20260505071549 70 345 9.0 13.0 0.00 0.00 0.00 29 1011.6
20260505070048 70 350 11.0 15.0 0.00 0.00 0.00 30 1011.5
20260505064545 70 360 5.0 10.0 0.00 0.00 0.00 30 1011.5
20260505063043 71 332 5.0 11.0 0.00 0.00 0.00 28 1011.5
20260505061559 71 319 2.0 8.0 0.00 0.00 0.00 29 1011.8
20260505060034 72 360 4.0 11.0 0.00 0.00 0.00 28 1012.0
20260505054532 72 360 7.0 13.0 0.00 0.00 0.00 28 1012.1
20260505053030 72 333 3.0 6.0 0.00 0.00 0.00 28 1012.1
20260505051529 73 360 5.0 9.0 0.00 0.00 0.00 27 1012.2
20260505041521 75 336 6.0 11.0 0.00 0.00 0.00 26 1012.0
20260505040021 75 340 8.0 11.0 0.00 0.00 0.00 25 1012.0
20260505034521 76 360 7.0 11.0 0.00 0.00 0.00 24 1011.9
20260505033031 77 360 7.0 10.0 0.00 0.00 0.00 23 1011.7
20260505031518 78 340 7.0 11.0 0.00 0.00 0.00 23 1011.6
20260505030017 77 360 9.0 12.0 0.00 0.00 0.00 23 1011.7
20260505024540 77 332 2.0 4.0 0.00 0.00 0.00 24 1011.3
20260505023016 79 330 3.0 6.0 0.00 0.00 0.00 21 1011.3
20260505021533 80 336 4.0 8.0 0.00 0.00 0.00 20 1010.9
20260505020015 81 323 3.0 8.0 0.00 0.00 0.00 20 1010.8
20260505014521 82 360 3.0 5.0 0.00 0.00 0.00 19 1010.7
20260505013013 83 360 4.0 5.0 0.00 0.00 0.00 18 1010.7
20260505011513 84 360 4.0 6.0 0.00 0.00 0.00 18 1010.4
20260505010013 86 349 3.0 9.0 0.00 0.00 0.00 17 1010.8
20260505004521 86 341 5.0 10.0 0.00 0.00 0.00 16 1010.6
20260505003009 87 345 7.0 12.0 0.00 0.00 0.00 16 1010.9
20260505001508 88 337 7.0 13.0 0.00 0.00 0.00 16 1010.9
20260505000008 87 323 9.0 15.0 0.00 0.00 0.00 16 1011.1